Time,TemperatureF,DewpointF,PressureIn,WindDirection,WindDirectionDegrees,WindSpeedMPH,WindSpeedGustMPH,Humidity,HourlyPrecipIn,Conditions,Clouds,dailyrainin,SoftwareType,DateUTC
2013-01-13 00:00:00,26.4,19.9,29.97,ESE,103,4.6,4.6,76,0.00,,,0.00,WeatherDisplay:10.36,2013-01-13 06:00:00,
2013-01-13 00:05:00,26.2,19.7,29.97,NE,54,3.6,0.0,76,0.00,,,0.00,WeatherDisplay:10.36,2013-01-13 06:05:00,
2013-01-13 00:10:00,26.4,19.9,29.97,East,101,5.8,5.8,76,0.00,,,0.00,WeatherDisplay:10.36,2013-01-13 06:10:00,
2013-01-13 00:15:00,26.2,19.4,30.00,East,88,5.8,5.8,75,0.00,,,0.00,WeatherDisplay:10.36,2013-01-13 06:15:00,
2013-01-13 00:20:00,26.2,19.4,30.00,NE,52,4.9,4.9,75,0.00,,,0.00,WeatherDisplay:10.36,2013-01-13 06:20:00,
2013-01-13 00:25:00,26.2,19.4,30.00,NE,51,4.0,4.0,75,0.00,,,0.00,WeatherDisplay:10.36,2013-01-13 06:25:00,
2013-01-13 00:30:00,26.1,19.2,30.00,NE,49,5.4,5.4,75,0.00,,,0.00,WeatherDisplay:10.36,2013-01-13 06:30:00,
2013-01-13 00:35:00,26.1,19.2,30.00,NNE,31,7.4,0.0,75,0.00,,,0.00,WeatherDisplay:10.36,2013-01-13 06:35:00,
2013-01-13 00:40:00,25.7,18.6,30.00,North,351,4.6,4.6,74,0.00,,,0.00,WeatherDisplay:10.36,2013-01-13 06:40:00,
2013-01-13 00:45:00,25.5,18.4,30.00,NE,46,4.6,4.6,74,0.00,,,0.00,WeatherDisplay:10.36,2013-01-13 06:45:00,
2013-01-13 00:50:00,25.5,18.4,29.97,NE,48,4.5,0.0,74,0.00,,,0.00,WeatherDisplay:10.36,2013-01-13 06:50:00,
2013-01-13 00:55:00,25.5,18.4,29.97,NE,50,6.9,6.9,74,0.00,,,0.00,WeatherDisplay:10.36,2013-01-13 06:55:00,
2013-01-13 01:00:00,25.3,17.9,30.00,NE,46,3.5,0.0,73,0.00,,,0.00,WeatherDisplay:10.36,2013-01-13 07:00:00,
2013-01-13 01:05:00,25.3,17.9,30.00,NE,44,0.0,0.0,73,0.00,,,0.00,WeatherDisplay:10.36,2013-01-13 07:05:00,
2013-01-13 01:10:00,25.3,17.9,30.00,NE,49,2.3,0.0,73,0.00,,,0.00,WeatherDisplay:10.36,2013-01-13 07:10:00,
2013-01-13 01:15:00,25.5,18.1,30.00,NE,50,4.6,4.6,73,0.00,,,0.00,WeatherDisplay:10.36,2013-01-13 07:15:00,
2013-01-13 01:20:00,25.3,17.9,29.97,NE,50,3.6,3.6,73,0.00,,,0.00,WeatherDisplay:10.36,2013-01-13 07:20:00,
2013-01-13 01:25:00,25.3,17.9,29.97,North,351,10.1,10.1,73,0.00,,,0.00,WeatherDisplay:10.36,2013-01-13 07:25:00,
2013-01-13 01:30:00,25.2,17.4,29.97,NE,43,6.3,6.3,72,0.00,,,0.00,WeatherDisplay:10.36,2013-01-13 07:30:00,
2013-01-13 01:35:00,25.0,17.2,29.97,NE,47,6.9,6.9,72,0.00,,,0.00,WeatherDisplay:10.36,2013-01-13 07:35:00,
2013-01-13 01:40:00,25.0,17.2,29.97,NE,46,5.8,5.8,72,0.00,,,0.00,WeatherDisplay:10.36,2013-01-13 07:40:00,
2013-01-13 01:45:00,24.8,17.1,30.00,NE,49,4.6,0.0,72,0.00,,,0.00,WeatherDisplay:10.36,2013-01-13 07:45:00,
2013-01-13 01:50:00,24.8,17.1,30.00,NE,49,6.3,0.0,72,0.00,,,0.00,WeatherDisplay:10.36,2013-01-13 07:50:00,
2013-01-13 01:55:00,24.8,17.1,30.00,NE,50,3.6,0.0,72,0.00,,,0.00,WeatherDisplay:10.36,2013-01-13 07:55:00,
2013-01-13 02:00:00,24.8,16.7,30.00,NNE,25,9.2,0.0,71,0.00,,,0.00,WeatherDisplay:10.36,2013-01-13 08:00:00,
2013-01-13 02:05:00,24.8,16.7,30.82,NE,53,3.5,3.5,71,0.00,,,0.00,WeatherDisplay:10.36,2013-01-13 08:05:00,
2013-01-13 02:10:00,24.8,16.7,30.82,NE,50,8.3,8.3,71,0.00,,,0.00,WeatherDisplay:10.36,2013-01-13 08:10:00,
2013-01-13 02:15:00,24.6,16.6,30.82,NE,48,7.4,7.4,71,0.00,,,0.00,WeatherDisplay:10.36,2013-01-13 08:15:00,
2013-01-13 02:20:00,24.6,16.2,30.03,NE,50,5.4,5.4,70,0.00,,,0.00,WeatherDisplay:10.36,2013-01-13 08:20:00,
2013-01-13 02:25:00,24.6,16.2,30.03,NE,46,5.8,0.0,70,0.00,,,0.00,WeatherDisplay:10.36,2013-01-13 08:25:00,
2013-01-13 02:30:00,24.6,16.2,30.03,North,351,5.8,5.8,70,0.00,,,0.00,WeatherDisplay:10.36,2013-01-13 08:30:00,
2013-01-13 02:35:00,24.4,16.1,30.03,NE,46,6.3,6.3,70,0.00,,,0.00,WeatherDisplay:10.36,2013-01-13 08:35:00,
2013-01-13 02:40:00,24.4,15.7,30.03,NE,48,4.6,4.6,69,0.00,,,0.00,WeatherDisplay:10.36,2013-01-13 08:40:00,
2013-01-13 02:45:00,24.4,15.7,30.03,NE,48,4.9,0.0,69,0.00,,,0.00,WeatherDisplay:10.36,2013-01-13 08:45:00,
2013-01-13 02:50:00,24.4,15.7,30.03,NE,48,6.9,6.9,69,0.00,,,0.00,WeatherDisplay:10.36,2013-01-13 08:50:00,
2013-01-13 02:55:00,24.4,15.7,30.03,North,351,6.9,6.9,69,0.00,,,0.00,WeatherDisplay:10.36,2013-01-13 08:55:00,
2013-01-13 03:00:00,24.4,15.7,30.03,NE,49,4.0,0.0,69,0.00,,,0.00,WeatherDisplay:10.36,2013-01-13 09:00:00,
2013-01-13 03:05:00,24.4,15.4,30.03,NE,46,5.8,5.8,68,0.00,,,0.00,WeatherDisplay:10.36,2013-01-13 09:05:00,
2013-01-13 03:10:00,24.3,15.2,30.03,ENE,64,4.6,4.6,68,0.00,,,0.00,WeatherDisplay:10.36,2013-01-13 09:10:00,
2013-01-13 03:15:00,24.3,15.2,30.06,NE,48,10.4,10.4,68,0.00,,,0.00,WeatherDisplay:10.36,2013-01-13 09:15:00,
2013-01-13 03:20:00,24.3,15.2,30.06,NE,52,3.6,3.6,68,0.00,,,0.00,WeatherDisplay:10.36,2013-01-13 09:20:00,
2013-01-13 03:25:00,24.3,15.2,30.06,NE,51,5.8,5.8,68,0.00,,,0.00,WeatherDisplay:10.36,2013-01-13 09:25:00,
2013-01-13 03:30:00,24.3,14.9,30.06,NNE,26,6.3,6.3,67,0.00,,,0.00,WeatherDisplay:10.36,2013-01-13 09:30:00,
2013-01-13 03:35:00,24.3,14.9,30.03,NE,50,4.6,0.0,67,0.00,,,0.00,WeatherDisplay:10.36,2013-01-13 09:35:00,
2013-01-13 03:40:00,24.3,14.9,30.03,NE,45,4.6,0.0,67,0.00,,,0.00,WeatherDisplay:10.36,2013-01-13 09:40:00,
2013-01-13 03:45:00,24.3,14.9,30.06,NE,51,6.9,6.9,67,0.00,,,0.00,WeatherDisplay:10.36,2013-01-13 09:45:00,
2013-01-13 03:50:00,24.3,14.9,30.06,NE,52,8.1,8.1,67,0.00,,,0.00,WeatherDisplay:10.36,2013-01-13 09:50:00,
2013-01-13 03:55:00,24.1,14.4,30.06,NE,47,5.8,5.8,66,0.00,,,0.00,WeatherDisplay:10.36,2013-01-13 09:55:00,
2013-01-13 04:00:00,24.1,14.4,30.06,NE,50,9.2,9.2,66,0.00,,,0.00,WeatherDisplay:10.36,2013-01-13 10:00:00,
2013-01-13 04:05:00,24.1,14.4,30.06,ENE,58,5.8,5.8,66,0.00,,,0.00,WeatherDisplay:10.36,2013-01-13 10:05:00,
2013-01-13 04:10:00,24.1,14.4,30.06,NE,50,0.0,0.0,66,0.00,,,0.00,WeatherDisplay:10.36,2013-01-13 10:10:00,
2013-01-13 04:15:00,24.1,14.4,30.06,NE,49,6.9,6.9,66,0.00,,,0.00,WeatherDisplay:10.36,2013-01-13 10:15:00,
2013-01-13 04:20:00,24.1,14.0,30.06,NE,47,5.8,5.8,65,0.00,,,0.00,WeatherDisplay:10.36,2013-01-13 10:20:00,
2013-01-13 04:25:00,23.9,13.8,30.06,NE,47,5.8,5.8,65,0.00,,,0.00,WeatherDisplay:10.36,2013-01-13 10:25:00,
2013-01-13 04:30:00,23.9,13.5,30.06,NE,50,4.6,4.6,64,0.00,,,0.00,WeatherDisplay:10.36,2013-01-13 10:30:00,
2013-01-13 04:35:00,23.7,13.0,30.06,NE,52,4.6,4.6,63,0.00,,,0.00,WeatherDisplay:10.36,2013-01-13 10:35:00,
2013-01-13 04:40:00,23.7,12.6,30.06,South,187,4.0,4.0,62,0.00,,,0.00,WeatherDisplay:10.36,2013-01-13 10:40:00,
2013-01-13 04:45:00,23.5,11.7,30.06,NE,51,4.9,0.0,60,0.00,,,0.00,WeatherDisplay:10.36,2013-01-13 10:45:00,
2013-01-13 04:50:00,23.5,11.3,30.06,ESE,107,3.6,4.0,59,0.00,,,0.00,WeatherDisplay:10.36,2013-01-13 10:50:00,
2013-01-13 04:55:00,23.7,11.5,30.06,NE,50,6.9,6.9,59,0.00,,,0.00,WeatherDisplay:10.36,2013-01-13 10:55:00,
2013-01-13 05:00:00,23.7,11.5,30.06,NE,51,0.0,0.0,59,0.00,,,0.00,WeatherDisplay:10.36,2013-01-13 11:00:00,
2013-01-13 05:05:00,23.7,11.5,30.06,NE,47,4.6,4.6,59,0.00,,,0.00,WeatherDisplay:10.36,2013-01-13 11:05:00,
2013-01-13 05:11:00,23.5,10.9,30.06,NE,50,6.7,6.7,58,0.00,,,0.00,WeatherDisplay:10.36,2013-01-13 11:11:00,
2013-01-13 05:16:00,23.4,10.7,30.06,NE,49,4.6,4.6,58,0.00,,,0.00,WeatherDisplay:10.36,2013-01-13 11:16:00,
2013-01-13 05:21:00,23.4,10.7,30.06,NE,50,0.0,0.0,58,0.00,,,0.00,WeatherDisplay:10.36,2013-01-13 11:21:00,
2013-01-13 05:26:00,23.4,10.7,30.06,NE,52,7.4,7.4,58,0.00,,,0.00,WeatherDisplay:10.36,2013-01-13 11:26:00,
2013-01-13 05:31:00,23.4,10.4,30.03,NE,49,4.9,4.9,57,0.00,,,0.00,WeatherDisplay:10.36,2013-01-13 11:31:00,
2013-01-13 05:36:00,23.2,10.2,30.03,NE,50,6.9,6.9,57,0.00,,,0.00,WeatherDisplay:10.36,2013-01-13 11:36:00,
2013-01-13 05:41:00,23.2,10.2,30.03,North,351,4.6,4.6,57,0.00,,,0.00,WeatherDisplay:10.36,2013-01-13 11:41:00,
2013-01-13 05:46:00,23.0,9.6,30.06,NE,46,4.6,4.6,56,0.00,,,0.00,WeatherDisplay:10.36,2013-01-13 11:46:00,
2013-01-13 05:51:00,22.8,9.4,30.06,NE,51,6.3,6.3,56,0.00,,,0.00,WeatherDisplay:10.36,2013-01-13 11:51:00,
2013-01-13 05:56:00,23.0,9.6,30.06,ENE,57,4.0,4.0,56,0.00,,,0.00,WeatherDisplay:10.36,2013-01-13 11:56:00,
2013-01-13 06:01:00,23.0,9.6,30.06,NE,47,4.6,0.0,56,0.00,,,0.00,WeatherDisplay:10.36,2013-01-13 12:01:00,
2013-01-13 06:06:00,23.0,9.6,30.06,NE,51,5.8,5.8,56,0.00,,,0.00,WeatherDisplay:10.36,2013-01-13 12:06:00,
2013-01-13 06:11:00,23.0,9.6,30.06,ENE,58,3.5,0.0,56,0.00,,,0.00,WeatherDisplay:10.36,2013-01-13 12:11:00,
2013-01-13 06:16:00,22.8,9.0,30.06,NE,50,6.3,6.3,55,0.00,,,0.00,WeatherDisplay:10.36,2013-01-13 12:16:00,
2013-01-13 06:21:00,22.6,8.9,30.06,NE,48,4.9,4.9,55,0.00,,,0.00,WeatherDisplay:10.36,2013-01-13 12:21:00,
2013-01-13 06:26:00,22.6,8.9,30.06,NE,55,4.0,0.0,55,0.00,,,0.00,WeatherDisplay:10.36,2013-01-13 12:26:00,
2013-01-13 06:31:00,22.6,8.9,30.06,NE,48,4.5,0.0,55,0.00,,,0.00,WeatherDisplay:10.36,2013-01-13 12:31:00,
2013-01-13 06:36:00,22.6,8.9,30.06,NE,48,4.9,4.9,55,0.00,,,0.00,WeatherDisplay:10.36,2013-01-13 12:36:00,
2013-01-13 06:41:00,22.8,9.0,30.06,NE,46,0.0,0.0,55,0.00,,,0.00,WeatherDisplay:10.36,2013-01-13 12:41:00,
2013-01-13 06:46:00,22.8,9.0,30.11,NE,47,4.0,0.0,55,0.00,,,0.00,WeatherDisplay:10.36,2013-01-13 12:46:00,
2013-01-13 06:51:00,22.8,9.0,30.11,NE,48,5.8,5.8,55,0.00,,,0.00,WeatherDisplay:10.36,2013-01-13 12:51:00,
2013-01-13 06:56:00,22.6,8.9,30.11,NE,47,3.5,0.0,55,0.00,,,0.00,WeatherDisplay:10.36,2013-01-13 12:56:00,
2013-01-13 07:01:00,22.6,8.9,30.08,NE,50,3.6,3.6,55,0.00,,,0.00,WeatherDisplay:10.36,2013-01-13 13:01:00,
2013-01-13 07:06:00,22.5,8.7,30.08,NE,47,4.0,4.0,55,0.00,,,0.00,WeatherDisplay:10.36,2013-01-13 13:06:00,
2013-01-13 07:11:00,22.5,8.7,30.08,NE,51,3.5,0.0,55,0.00,,,0.00,WeatherDisplay:10.36,2013-01-13 13:11:00,
2013-01-13 07:16:00,22.5,8.7,30.08,East,80,4.6,4.6,55,0.00,,,0.00,WeatherDisplay:10.36,2013-01-13 13:16:00,
2013-01-13 07:21:00,22.6,8.9,30.08,NE,51,2.7,0.0,55,0.00,,,0.00,WeatherDisplay:10.36,2013-01-13 13:21:00,
2013-01-13 07:26:00,22.6,8.9,30.08,ENE,70,5.8,0.0,55,0.00,,,0.00,WeatherDisplay:10.36,2013-01-13 13:26:00,
2013-01-13 07:31:00,22.6,8.9,30.11,NE,47,0.0,0.0,55,0.00,,,0.00,WeatherDisplay:10.36,2013-01-13 13:31:00,
2013-01-13 07:36:00,22.5,8.7,30.11,NE,48,5.8,0.0,55,0.00,,,0.00,WeatherDisplay:10.36,2013-01-13 13:36:00,
2013-01-13 07:41:00,22.3,8.5,30.11,NE,47,4.9,4.9,55,0.00,,,0.00,WeatherDisplay:10.36,2013-01-13 13:41:00,
2013-01-13 07:46:00,22.3,8.5,30.14,NE,48,4.0,4.0,55,0.00,,,0.00,WeatherDisplay:10.36,2013-01-13 13:46:00,
2013-01-13 07:51:00,22.1,8.4,30.14,NE,48,3.6,3.6,55,0.00,,,0.00,WeatherDisplay:10.36,2013-01-13 13:51:00,
2013-01-13 07:56:00,22.1,8.4,30.14,NE,50,2.7,0.0,55,0.00,,,0.00,WeatherDisplay:10.36,2013-01-13 13:56:00,
2013-01-13 08:01:00,22.1,8.4,30.11,NE,50,3.5,0.0,55,0.00,,,0.00,WeatherDisplay:10.36,2013-01-13 14:01:00,
2013-01-13 08:06:00,21.9,8.2,30.11,SE,134,3.5,0.0,55,0.00,,,0.00,WeatherDisplay:10.36,2013-01-13 14:06:00,
2013-01-13 08:11:00,21.9,8.2,30.11,NE,49,4.9,4.9,55,0.00,,,0.00,WeatherDisplay:10.36,2013-01-13 14:11:00,
2013-01-13 08:16:00,22.1,8.4,30.14,NE,52,3.5,3.5,55,0.00,,,0.00,WeatherDisplay:10.36,2013-01-13 14:16:00,
2013-01-13 08:21:00,22.3,8.5,30.14,NE,55,6.9,6.9,55,0.00,,,0.00,WeatherDisplay:10.36,2013-01-13 14:21:00,
2013-01-13 08:26:00,22.3,8.5,30.14,North,351,4.5,0.0,55,0.00,,,0.00,WeatherDisplay:10.36,2013-01-13 14:26:00,
2013-01-13 08:31:00,22.5,8.7,30.14,NE,52,5.8,5.8,55,0.00,,,0.00,WeatherDisplay:10.36,2013-01-13 14:31:00,
2013-01-13 08:37:00,22.6,8.9,30.14,NE,53,3.6,3.6,55,0.00,,,0.00,WeatherDisplay:10.36,2013-01-13 14:37:00,
2013-01-13 08:42:00,22.8,9.0,30.14,NE,49,3.6,0.0,55,0.00,,,0.00,WeatherDisplay:10.36,2013-01-13 14:42:00,
2013-01-13 08:47:00,23.0,9.2,30.14,ENE,72,2.7,0.0,55,0.00,,,0.00,WeatherDisplay:10.36,2013-01-13 14:47:00,
2013-01-13 08:52:00,23.0,8.8,30.14,ENE,61,4.0,0.0,54,0.00,,,0.00,WeatherDisplay:10.36,2013-01-13 14:52:00,
2013-01-13 08:57:00,22.8,8.2,30.14,NE,47,5.4,5.4,53,0.00,,,0.00,WeatherDisplay:10.36,2013-01-13 14:57:00,
2013-01-13 09:02:00,22.6,8.1,30.11,NE,53,0.0,0.0,53,0.00,,,0.00,WeatherDisplay:10.36,2013-01-13 15:02:00,
2013-01-13 09:07:00,22.6,7.6,30.11,NE,47,5.4,5.4,52,0.00,,,0.00,WeatherDisplay:10.36,2013-01-13 15:07:00,
2013-01-13 09:12:00,22.8,7.8,30.11,NE,53,4.0,0.0,52,0.00,,,0.00,WeatherDisplay:10.36,2013-01-13 15:12:00,
2013-01-13 09:17:00,23.0,8.0,30.14,SSE,152,2.7,0.0,52,0.00,,,0.00,WeatherDisplay:10.36,2013-01-13 15:17:00,
2013-01-13 09:22:00,23.0,8.0,30.14,NE,51,4.6,0.0,52,0.00,,,0.00,WeatherDisplay:10.36,2013-01-13 15:22:00,
2013-01-13 09:27:00,23.2,8.1,30.14,NE,46,6.9,6.9,52,0.00,,,0.00,WeatherDisplay:10.36,2013-01-13 15:27:00,
2013-01-13 09:32:00,23.4,8.3,30.11,NE,49,4.6,4.6,52,0.00,,,0.00,WeatherDisplay:10.36,2013-01-13 15:32:00,
2013-01-13 09:37:00,23.4,7.9,30.11,NE,52,5.8,5.8,51,0.00,,,0.00,WeatherDisplay:10.36,2013-01-13 15:37:00,
2013-01-13 09:42:00,23.0,7.1,30.11,NE,52,5.8,5.8,50,0.00,,,0.00,WeatherDisplay:10.36,2013-01-13 15:42:00,
2013-01-13 09:47:00,22.8,6.9,30.11,NE,48,4.9,0.0,50,0.00,,,0.00,WeatherDisplay:10.36,2013-01-13 15:47:00,
2013-01-13 09:52:00,22.8,6.5,30.11,NE,48,0.0,0.0,49,0.00,,,0.00,WeatherDisplay:10.36,2013-01-13 15:52:00,
2013-01-13 09:57:00,23.0,7.1,30.11,NE,55,5.8,5.8,50,0.00,,,0.00,WeatherDisplay:10.36,2013-01-13 15:57:00,
2013-01-13 10:02:00,23.0,7.1,30.11,NE,49,5.8,5.8,50,0.00,,,0.00,WeatherDisplay:10.36,2013-01-13 16:02:00,
2013-01-13 10:07:00,23.0,7.1,30.11,NE,48,2.7,0.0,50,0.00,,,0.00,WeatherDisplay:10.36,2013-01-13 16:07:00,
2013-01-13 10:12:00,23.0,7.1,30.11,NE,47,0.0,0.0,50,0.00,,,0.00,WeatherDisplay:10.36,2013-01-13 16:12:00,
2013-01-13 10:17:00,23.4,7.4,30.11,NE,52,5.8,5.8,50,0.00,,,0.00,WeatherDisplay:10.36,2013-01-13 16:17:00,
2013-01-13 10:22:00,23.4,7.4,30.11,NE,52,6.9,6.9,50,0.00,,,0.00,WeatherDisplay:10.36,2013-01-13 16:22:00,
2013-01-13 10:27:00,23.4,7.0,30.11,NE,51,10.4,10.4,49,0.00,,,0.00,WeatherDisplay:10.36,2013-01-13 16:27:00,
2013-01-13 10:32:00,23.2,6.8,30.14,NE,52,3.5,0.0,49,0.00,,,0.00,WeatherDisplay:10.36,2013-01-13 16:32:00,
2013-01-13 10:37:00,23.5,7.2,30.14,ENE,58,5.8,5.8,49,0.00,,,0.00,WeatherDisplay:10.36,2013-01-13 16:37:00,
2013-01-13 10:42:00,23.7,7.3,30.14,ENE,63,4.6,4.6,49,0.00,,,0.00,WeatherDisplay:10.36,2013-01-13 16:42:00,
2013-01-13 10:47:00,23.9,7.5,30.14,NE,47,8.1,8.1,49,0.00,,,0.00,WeatherDisplay:10.36,2013-01-13 16:47:00,
2013-01-13 10:52:00,23.9,7.0,30.14,East,86,4.0,4.0,48,0.00,,,0.00,WeatherDisplay:10.36,2013-01-13 16:52:00,
2013-01-13 10:57:00,23.9,6.6,30.14,NE,49,5.8,5.8,47,0.00,,,0.00,WeatherDisplay:10.36,2013-01-13 16:57:00,
2013-01-13 11:02:00,24.3,6.9,30.14,ENE,68,5.8,5.8,47,0.00,,,0.00,WeatherDisplay:10.36,2013-01-13 17:02:00,
2013-01-13 11:07:00,24.4,7.1,30.14,NE,51,5.8,5.8,47,0.00,,,0.00,WeatherDisplay:10.36,2013-01-13 17:07:00,
2013-01-13 11:12:00,24.6,6.8,30.14,East,83,7.4,7.4,46,0.00,,,0.00,WeatherDisplay:10.36,2013-01-13 17:12:00,
2013-01-13 11:17:00,24.6,6.8,30.17,ENE,76,6.3,6.3,46,0.00,,,0.00,WeatherDisplay:10.36,2013-01-13 17:17:00,
2013-01-13 11:22:00,24.8,6.9,30.17,NE,45,9.2,9.2,46,0.00,,,0.00,WeatherDisplay:10.36,2013-01-13 17:22:00,
2013-01-13 11:27:00,25.3,6.9,30.17,NE,53,7.4,7.4,45,0.00,,,0.00,WeatherDisplay:10.36,2013-01-13 17:27:00,
2013-01-13 11:32:00,25.7,7.3,30.17,NE,48,5.8,5.8,45,0.00,,,0.00,WeatherDisplay:10.36,2013-01-13 17:32:00,
2013-01-13 11:37:00,25.9,7.4,30.17,NE,51,6.9,6.9,45,0.00,,,0.00,WeatherDisplay:10.36,2013-01-13 17:37:00,
2013-01-13 11:42:00,25.9,7.9,30.17,NE,52,8.1,8.1,46,0.00,,,0.00,WeatherDisplay:10.36,2013-01-13 17:42:00,
2013-01-13 11:47:00,26.1,8.1,30.14,NE,45,10.4,10.4,46,0.00,,,0.00,WeatherDisplay:10.36,2013-01-13 17:47:00,
2013-01-13 11:52:00,26.2,8.2,30.14,NE,46,5.8,5.8,46,0.00,,,0.00,WeatherDisplay:10.36,2013-01-13 17:52:00,
2013-01-13 11:57:00,26.1,7.6,30.14,ENE,65,8.7,8.7,45,0.00,,,0.00,WeatherDisplay:10.36,2013-01-13 17:57:00,
2013-01-13 12:02:00,25.9,7.4,30.11,NE,47,4.9,4.9,45,0.00,,,0.00,WeatherDisplay:10.36,2013-01-13 18:02:00,
2013-01-13 12:07:00,25.9,7.4,30.11,NE,50,8.1,8.1,45,0.00,,,0.00,WeatherDisplay:10.36,2013-01-13 18:07:00,
2013-01-13 12:12:00,25.9,6.9,30.11,NE,49,9.2,9.2,44,0.00,,,0.00,WeatherDisplay:10.36,2013-01-13 18:12:00,
2013-01-13 12:17:00,25.9,6.9,30.11,NE,51,6.3,6.3,44,0.00,,,0.00,WeatherDisplay:10.36,2013-01-13 18:17:00,
2013-01-13 12:22:00,25.9,6.9,30.11,NE,47,6.9,0.0,44,0.00,,,0.00,WeatherDisplay:10.36,2013-01-13 18:22:00,
2013-01-13 12:27:00,26.2,6.7,30.11,NE,53,6.9,6.9,43,0.00,,,0.00,WeatherDisplay:10.36,2013-01-13 18:27:00,
2013-01-13 12:32:00,26.6,7.1,30.11,NE,47,5.8,5.8,43,0.00,,,0.00,WeatherDisplay:10.36,2013-01-13 18:32:00,
2013-01-13 12:37:00,26.8,7.2,30.11,NE,52,5.8,5.8,43,0.00,,,0.00,WeatherDisplay:10.36,2013-01-13 18:37:00,
2013-01-13 12:42:00,27.0,6.9,30.11,NE,46,8.7,8.7,42,0.00,,,0.00,WeatherDisplay:10.36,2013-01-13 18:42:00,
2013-01-13 12:47:00,27.0,6.9,30.11,NE,49,8.3,8.3,42,0.00,,,0.00,WeatherDisplay:10.36,2013-01-13 18:47:00,
2013-01-13 12:52:00,27.0,6.9,30.11,NE,44,10.4,10.4,42,0.00,,,0.00,WeatherDisplay:10.36,2013-01-13 18:52:00,
2013-01-13 12:57:00,26.8,6.2,30.11,NE,47,7.4,7.4,41,0.00,,,0.00,WeatherDisplay:10.36,2013-01-13 18:57:00,
2013-01-13 13:02:00,26.8,6.2,30.11,NE,49,7.4,7.4,41,0.00,,,0.00,WeatherDisplay:10.36,2013-01-13 19:02:00,
2013-01-13 13:07:00,26.8,6.2,30.11,NE,47,6.9,6.9,41,0.00,,,0.00,WeatherDisplay:10.36,2013-01-13 19:07:00,
2013-01-13 13:12:00,26.8,6.2,30.11,NE,54,6.9,6.9,41,0.00,,,0.00,WeatherDisplay:10.36,2013-01-13 19:12:00,
2013-01-13 13:17:00,27.0,6.4,30.11,West,265,7.8,7.8,41,0.00,,,0.00,WeatherDisplay:10.36,2013-01-13 19:17:00,
2013-01-13 13:22:00,27.0,6.4,30.11,NE,49,10.4,10.4,41,0.00,,,0.00,WeatherDisplay:10.36,2013-01-13 19:22:00,
2013-01-13 13:27:00,27.0,6.4,30.11,NE,50,9.6,9.6,41,0.00,,,0.00,WeatherDisplay:10.36,2013-01-13 19:27:00,
2013-01-13 13:32:00,27.1,6.5,30.11,NE,51,9.2,9.2,41,0.00,,,0.00,WeatherDisplay:10.36,2013-01-13 19:32:00,
2013-01-13 13:37:00,27.1,6.5,30.11,NE,45,5.8,5.8,41,0.00,,,0.00,WeatherDisplay:10.36,2013-01-13 19:37:00,
2013-01-13 13:42:00,27.1,6.5,30.11,NE,49,6.7,6.7,41,0.00,,,0.00,WeatherDisplay:10.36,2013-01-13 19:42:00,
2013-01-13 13:47:00,27.1,6.5,30.11,NE,45,8.1,8.1,41,0.00,,,0.00,WeatherDisplay:10.36,2013-01-13 19:47:00,
2013-01-13 13:52:00,26.8,5.6,30.11,NE,48,9.2,9.2,40,0.00,,,0.00,WeatherDisplay:10.36,2013-01-13 19:52:00,
2013-01-13 13:57:00,26.8,6.2,30.11,NE,47,10.4,10.4,41,0.00,,,0.00,WeatherDisplay:10.36,2013-01-13 19:57:00,
2013-01-13 14:02:00,26.6,6.0,30.11,NE,52,6.9,6.9,41,0.00,,,0.00,WeatherDisplay:10.36,2013-01-13 20:02:00,
2013-01-13 14:07:00,26.8,6.2,30.11,ENE,60,6.9,6.9,41,0.00,,,0.00,WeatherDisplay:10.36,2013-01-13 20:07:00,
2013-01-13 14:12:00,26.6,6.0,30.11,NE,51,6.9,6.9,41,0.00,,,0.00,WeatherDisplay:10.36,2013-01-13 20:12:00,
2013-01-13 14:17:00,26.8,6.2,30.14,NE,49,7.4,7.4,41,0.00,,,0.00,WeatherDisplay:10.36,2013-01-13 20:17:00,
2013-01-13 14:22:00,26.8,6.7,30.14,NE,56,10.9,10.9,42,0.00,,,0.00,WeatherDisplay:10.36,2013-01-13 20:22:00,
2013-01-13 14:27:00,26.8,6.7,30.14,NE,48,5.8,5.8,42,0.00,,,0.00,WeatherDisplay:10.36,2013-01-13 20:27:00,
2013-01-13 14:32:00,27.0,6.9,30.14,NE,54,6.3,6.3,42,0.00,,,0.00,WeatherDisplay:10.36,2013-01-13 20:32:00,
2013-01-13 14:37:00,27.0,6.9,30.14,NE,48,8.1,8.1,42,0.00,,,0.00,WeatherDisplay:10.36,2013-01-13 20:37:00,
2013-01-13 14:42:00,27.1,7.0,30.14,ESE,110,6.9,6.9,42,0.00,,,0.00,WeatherDisplay:10.36,2013-01-13 20:42:00,
2013-01-13 14:47:00,27.1,7.0,30.14,ENE,74,8.3,8.3,42,0.00,,,0.00,WeatherDisplay:10.36,2013-01-13 20:47:00,
2013-01-13 14:52:00,27.0,6.9,30.14,NE,44,8.3,8.3,42,0.00,,,0.00,WeatherDisplay:10.36,2013-01-13 20:52:00,
2013-01-13 14:57:00,26.8,6.7,30.14,NE,50,6.9,6.9,42,0.00,,,0.00,WeatherDisplay:10.36,2013-01-13 20:57:00,
2013-01-13 15:02:00,26.8,6.7,30.14,NE,47,9.2,9.2,42,0.00,,,0.00,WeatherDisplay:10.36,2013-01-13 21:02:00,
2013-01-13 15:07:00,26.4,6.4,30.14,NE,51,8.1,8.1,42,0.00,,,0.00,WeatherDisplay:10.36,2013-01-13 21:07:00,
2013-01-13 15:12:00,26.2,6.2,30.14,NE,49,7.8,7.8,42,0.00,,,0.00,WeatherDisplay:10.36,2013-01-13 21:12:00,
2013-01-13 15:17:00,26.1,6.1,30.17,NE,47,6.7,6.7,42,0.00,,,0.00,WeatherDisplay:10.36,2013-01-13 21:17:00,
2013-01-13 15:22:00,26.1,6.1,30.17,ENE,66,6.9,6.9,42,0.00,,,0.00,WeatherDisplay:10.36,2013-01-13 21:22:00,
2013-01-13 15:27:00,26.1,6.1,30.17,NE,50,5.8,5.8,42,0.00,,,0.00,WeatherDisplay:10.36,2013-01-13 21:27:00,
2013-01-13 15:32:00,26.1,6.6,30.17,NE,48,6.9,6.9,43,0.00,,,0.00,WeatherDisplay:10.36,2013-01-13 21:32:00,
2013-01-13 15:37:00,25.9,6.4,30.17,NE,48,7.4,7.4,43,0.00,,,0.00,WeatherDisplay:10.36,2013-01-13 21:37:00,
2013-01-13 15:42:00,25.7,6.3,30.17,NE,49,6.9,6.9,43,0.00,,,0.00,WeatherDisplay:10.36,2013-01-13 21:42:00,
2013-01-13 15:47:00,25.5,6.1,30.17,NE,55,7.4,7.4,43,0.00,,,0.00,WeatherDisplay:10.36,2013-01-13 21:47:00,
2013-01-13 15:52:00,25.5,6.1,30.17,NE,46,10.1,10.1,43,0.00,,,0.00,WeatherDisplay:10.36,2013-01-13 21:52:00,
2013-01-13 15:57:00,25.3,5.9,30.17,NE,55,6.9,6.9,43,0.00,,,0.00,WeatherDisplay:10.36,2013-01-13 21:57:00,
2013-01-13 16:02:00,25.3,5.9,30.17,NE,49,7.4,7.4,43,0.00,,,0.00,WeatherDisplay:10.36,2013-01-13 22:02:00,
2013-01-13 16:07:00,25.2,5.8,30.17,NE,52,5.8,5.8,43,0.00,,,0.00,WeatherDisplay:10.36,2013-01-13 22:07:00,
2013-01-13 16:12:00,25.0,6.1,30.17,NE,49,6.3,6.3,44,0.00,,,0.00,WeatherDisplay:10.36,2013-01-13 22:12:00,
2013-01-13 16:17:00,24.8,5.9,30.20,NE,50,4.6,4.6,44,0.00,,,0.00,WeatherDisplay:10.36,2013-01-13 22:17:00,
2013-01-13 16:22:00,24.8,5.9,30.20,ENE,64,5.8,5.8,44,0.00,,,0.00,WeatherDisplay:10.36,2013-01-13 22:22:00,
2013-01-13 16:27:00,24.6,5.8,30.20,NE,51,9.2,9.2,44,0.00,,,0.00,WeatherDisplay:10.36,2013-01-13 22:27:00,
2013-01-13 16:32:00,24.4,5.6,30.20,NE,50,6.9,6.9,44,0.00,,,0.00,WeatherDisplay:10.36,2013-01-13 22:32:00,
2013-01-13 16:38:00,24.3,5.4,30.20,NE,49,4.0,4.0,44,0.00,,,0.00,WeatherDisplay:10.36,2013-01-13 22:38:00,
2013-01-13 16:43:00,23.9,5.1,30.20,West,266,6.7,6.7,44,0.00,,,0.00,WeatherDisplay:10.36,2013-01-13 22:43:00,
2013-01-13 16:48:00,23.9,5.1,30.20,NE,50,3.6,3.6,44,0.00,,,0.00,WeatherDisplay:10.36,2013-01-13 22:48:00,
2013-01-13 16:53:00,23.7,5.0,30.20,NE,52,7.8,7.8,44,0.00,,,0.00,WeatherDisplay:10.36,2013-01-13 22:53:00,
2013-01-13 16:58:00,23.4,4.6,30.20,North,351,4.9,4.9,44,0.00,,,0.00,WeatherDisplay:10.36,2013-01-13 22:58:00,
2013-01-13 17:03:00,23.2,4.5,30.20,NE,49,5.8,5.8,44,0.00,,,0.00,WeatherDisplay:10.36,2013-01-13 23:03:00,
2013-01-13 17:08:00,23.0,4.3,30.20,NE,49,3.6,3.6,44,0.00,,,0.00,WeatherDisplay:10.36,2013-01-13 23:08:00,
2013-01-13 17:13:00,22.8,4.6,30.20,NE,50,3.6,3.6,45,0.00,,,0.00,WeatherDisplay:10.36,2013-01-13 23:13:00,
2013-01-13 17:18:00,22.6,4.5,30.20,NE,50,3.6,3.6,45,0.00,,,0.00,WeatherDisplay:10.36,2013-01-13 23:18:00,
2013-01-13 17:23:00,22.5,4.3,30.20,NE,49,0.0,0.0,45,0.00,,,0.00,WeatherDisplay:10.36,2013-01-13 23:23:00,
2013-01-13 17:28:00,22.3,4.1,30.20,NE,49,3.1,3.1,45,0.00,,,0.00,WeatherDisplay:10.36,2013-01-13 23:28:00,
2013-01-13 17:33:00,22.3,4.1,30.23,ENE,61,4.9,0.0,45,0.00,,,0.00,WeatherDisplay:10.36,2013-01-13 23:33:00,
2013-01-13 17:38:00,22.1,4.0,30.23,ENE,73,0.0,0.0,45,0.00,,,0.00,WeatherDisplay:10.36,2013-01-13 23:38:00,
2013-01-13 17:43:00,22.1,4.4,30.23,ENE,75,0.0,0.0,46,0.00,,,0.00,WeatherDisplay:10.36,2013-01-13 23:43:00,
2013-01-13 17:48:00,21.9,4.3,30.23,ENE,72,0.0,0.0,46,0.00,,,0.00,WeatherDisplay:10.36,2013-01-13 23:48:00,
2013-01-13 17:53:00,21.7,4.1,30.23,ENE,73,0.0,0.0,46,0.00,,,0.00,WeatherDisplay:10.36,2013-01-13 23:53:00,
2013-01-13 17:58:00,21.6,3.9,30.23,ENE,72,0.0,0.0,46,0.00,,,0.00,WeatherDisplay:10.36,2013-01-13 23:58:00,
2013-01-13 18:03:00,21.6,3.9,30.23,ENE,59,0.0,0.0,46,0.00,,,0.00,WeatherDisplay:10.36,2013-01-14 00:03:00,
2013-01-13 18:08:00,21.4,3.8,30.23,ENE,58,0.0,0.0,46,0.00,,,0.00,WeatherDisplay:10.36,2013-01-14 00:08:00,
2013-01-13 18:13:00,21.4,4.2,30.23,ENE,59,0.0,0.0,47,0.00,,,0.00,WeatherDisplay:10.36,2013-01-14 00:13:00,
2013-01-13 18:18:00,21.4,4.2,30.23,ENE,58,0.0,0.0,47,0.00,,,0.00,WeatherDisplay:10.36,2013-01-14 00:18:00,
2013-01-13 18:23:00,21.2,4.1,30.23,ENE,60,0.0,0.0,47,0.00,,,0.00,WeatherDisplay:10.36,2013-01-14 00:23:00,
2013-01-13 18:28:00,21.0,3.9,30.23,ENE,59,0.0,0.0,47,0.00,,,0.00,WeatherDisplay:10.36,2013-01-14 00:28:00,
2013-01-13 18:33:00,21.0,3.9,30.23,ENE,58,0.0,0.0,47,0.00,,,0.00,WeatherDisplay:10.36,2013-01-14 00:33:00,
2013-01-13 18:38:00,20.8,4.2,30.23,ENE,58,0.0,0.0,48,0.00,,,0.00,WeatherDisplay:10.36,2013-01-14 00:38:00,
2013-01-13 18:43:00,20.7,4.0,30.23,ENE,58,0.0,0.0,48,0.00,,,0.00,WeatherDisplay:10.36,2013-01-14 00:43:00,
2013-01-13 18:48:00,20.5,3.9,30.23,ENE,59,0.0,0.0,48,0.00,,,0.00,WeatherDisplay:10.36,2013-01-14 00:48:00,
2013-01-13 18:53:00,20.5,3.9,30.23,ENE,59,0.0,0.0,48,0.00,,,0.00,WeatherDisplay:10.36,2013-01-14 00:53:00,
2013-01-13 18:58:00,20.3,3.7,30.23,NE,56,0.0,0.0,48,0.00,,,0.00,WeatherDisplay:10.36,2013-01-14 00:58:00,
2013-01-13 19:03:00,20.3,4.2,30.26,ENE,57,0.0,0.0,49,0.00,,,0.00,WeatherDisplay:10.36,2013-01-14 01:03:00,
2013-01-13 19:08:00,20.1,4.0,30.26,ENE,57,0.0,0.0,49,0.00,,,0.00,WeatherDisplay:10.36,2013-01-14 01:08:00,
2013-01-13 19:13:00,20.1,4.4,30.26,ENE,57,0.0,0.0,50,0.00,,,0.00,WeatherDisplay:10.36,2013-01-14 01:13:00,
2013-01-13 19:18:00,19.9,4.3,30.26,ENE,58,0.0,0.0,50,0.00,,,0.00,WeatherDisplay:10.36,2013-01-14 01:18:00,
2013-01-13 19:23:00,19.9,4.3,30.26,ENE,63,0.0,0.0,50,0.00,,,0.00,WeatherDisplay:10.36,2013-01-14 01:23:00,
2013-01-13 19:28:00,19.9,4.3,30.26,NE,51,0.0,0.0,50,0.00,,,0.00,WeatherDisplay:10.36,2013-01-14 01:28:00,
2013-01-13 19:33:00,19.8,4.5,30.26,NE,51,0.0,0.0,51,0.00,,,0.00,WeatherDisplay:10.36,2013-01-14 01:33:00,
2013-01-13 19:38:00,19.8,4.5,30.26,NE,53,0.0,0.0,51,0.00,,,0.00,WeatherDisplay:10.36,2013-01-14 01:38:00,
2013-01-13 19:43:00,19.8,4.5,30.26,NE,53,0.0,0.0,51,0.00,,,0.00,WeatherDisplay:10.36,2013-01-14 01:43:00,
2013-01-13 19:48:00,19.8,4.9,30.26,NE,53,0.0,0.0,52,0.00,,,0.00,WeatherDisplay:10.36,2013-01-14 01:48:00,
2013-01-13 19:53:00,19.8,4.9,30.26,NE,53,0.0,0.0,52,0.00,,,0.00,WeatherDisplay:10.36,2013-01-14 01:53:00,
2013-01-13 19:58:00,19.8,4.9,30.26,NE,53,0.0,0.0,52,0.00,,,0.00,WeatherDisplay:10.36,2013-01-14 01:58:00,
2013-01-13 20:03:00,19.6,4.8,30.26,NE,52,0.0,0.0,52,0.00,,,0.00,WeatherDisplay:10.36,2013-01-14 02:03:00,
2013-01-13 20:08:00,19.6,5.2,30.26,NE,52,0.0,0.0,53,0.00,,,0.00,WeatherDisplay:10.36,2013-01-14 02:08:00,
2013-01-13 20:13:00,19.4,5.0,30.26,NE,51,0.0,0.0,53,0.00,,,0.00,WeatherDisplay:10.36,2013-01-14 02:13:00,
2013-01-13 20:18:00,19.4,5.0,30.26,ENE,73,0.0,0.0,53,0.00,,,0.00,WeatherDisplay:10.36,2013-01-14 02:18:00,
2013-01-13 20:23:00,19.0,4.7,30.26,ENE,69,0.0,0.0,53,0.00,,,0.00,WeatherDisplay:10.36,2013-01-14 02:23:00,
2013-01-13 20:28:00,19.0,4.7,30.26,ENE,67,0.0,0.0,53,0.00,,,0.00,WeatherDisplay:10.36,2013-01-14 02:28:00,
2013-01-13 20:33:00,18.9,4.5,30.26,NE,51,0.0,0.0,53,0.00,,,0.00,WeatherDisplay:10.36,2013-01-14 02:33:00,
2013-01-13 20:38:00,18.9,4.5,30.26,NE,52,0.0,0.0,53,0.00,,,0.00,WeatherDisplay:10.36,2013-01-14 02:38:00,
2013-01-13 20:43:00,18.9,4.5,30.26,NE,50,0.0,0.0,53,0.00,,,0.00,WeatherDisplay:10.36,2013-01-14 02:43:00,
2013-01-13 20:48:00,18.5,4.2,30.26,NE,50,0.0,0.0,53,0.00,,,0.00,WeatherDisplay:10.36,2013-01-14 02:48:00,
2013-01-13 20:53:00,18.3,4.4,30.26,NE,50,0.0,0.0,54,0.00,,,0.00,WeatherDisplay:10.36,2013-01-14 02:53:00,
2013-01-13 20:58:00,18.3,4.4,30.26,NE,50,0.0,0.0,54,0.00,,,0.00,WeatherDisplay:10.36,2013-01-14 02:58:00,
2013-01-13 21:03:00,18.1,4.3,30.26,NE,50,0.0,0.0,54,0.00,,,0.00,WeatherDisplay:10.36,2013-01-14 03:03:00,
2013-01-13 21:08:00,18.0,4.1,30.26,NE,50,0.0,0.0,54,0.00,,,0.00,WeatherDisplay:10.36,2013-01-14 03:08:00,
2013-01-13 21:13:00,18.0,4.1,30.26,NE,50,0.0,0.0,54,0.00,,,0.00,WeatherDisplay:10.36,2013-01-14 03:13:00,
2013-01-13 21:18:00,17.8,3.9,30.26,NE,49,0.0,0.0,54,0.00,,,0.00,WeatherDisplay:10.36,2013-01-14 03:18:00,
2013-01-13 21:23:00,17.6,3.8,30.26,NE,50,0.0,0.0,54,0.00,,,0.00,WeatherDisplay:10.36,2013-01-14 03:23:00,
2013-01-13 21:28:00,17.6,3.8,30.26,NE,50,0.0,0.0,54,0.00,,,0.00,WeatherDisplay:10.36,2013-01-14 03:28:00,
2013-01-13 21:33:00,17.4,4.0,30.26,NE,50,0.0,0.0,55,0.00,,,0.00,WeatherDisplay:10.36,2013-01-14 03:33:00,
2013-01-13 21:38:00,17.2,3.8,30.26,NE,53,0.0,0.0,55,0.00,,,0.00,WeatherDisplay:10.36,2013-01-14 03:38:00,
2013-01-13 21:43:00,17.2,3.8,30.26,NE,52,0.0,0.0,55,0.00,,,0.00,WeatherDisplay:10.36,2013-01-14 03:43:00,
2013-01-13 21:48:00,17.2,3.8,30.26,NE,51,0.0,0.0,55,0.00,,,0.00,WeatherDisplay:10.36,2013-01-14 03:48:00,
2013-01-13 21:53:00,17.2,3.8,30.26,NE,52,0.0,0.0,55,0.00,,,0.00,WeatherDisplay:10.36,2013-01-14 03:53:00,
2013-01-13 21:58:00,17.2,3.8,30.26,NE,52,0.0,0.0,55,0.00,,,0.00,WeatherDisplay:10.36,2013-01-14 03:58:00,
2013-01-13 22:03:00,17.2,3.8,30.29,NE,50,0.0,0.0,55,0.00,,,0.00,WeatherDisplay:10.36,2013-01-14 04:03:00,
2013-01-13 22:08:00,17.1,3.6,30.29,NE,51,0.0,0.0,55,0.00,,,0.00,WeatherDisplay:10.36,2013-01-14 04:08:00,
2013-01-13 22:13:00,16.9,3.5,30.29,NE,50,0.0,0.0,55,0.00,,,0.00,WeatherDisplay:10.36,2013-01-14 04:13:00,
2013-01-13 22:18:00,16.9,3.9,30.26,NE,53,0.0,0.0,56,0.00,,,0.00,WeatherDisplay:10.36,2013-01-14 04:18:00,
2013-01-13 22:23:00,16.9,3.9,30.26,NE,52,0.0,0.0,56,0.00,,,0.00,WeatherDisplay:10.36,2013-01-14 04:23:00,
2013-01-13 22:28:00,16.9,3.9,30.26,NE,52,0.0,0.0,56,0.00,,,0.00,WeatherDisplay:10.36,2013-01-14 04:28:00,
2013-01-13 22:33:00,16.9,3.9,30.26,NE,49,0.0,0.0,56,0.00,,,0.00,WeatherDisplay:10.36,2013-01-14 04:33:00,
2013-01-13 22:38:00,16.9,4.3,30.26,NE,50,0.0,0.0,57,0.00,,,0.00,WeatherDisplay:10.36,2013-01-14 04:38:00,
2013-01-13 22:43:00,17.1,4.4,30.26,NE,51,0.0,0.0,57,0.00,,,0.00,WeatherDisplay:10.36,2013-01-14 04:43:00,
2013-01-13 22:48:00,17.2,4.6,30.29,NE,51,0.0,0.0,57,0.00,,,0.00,WeatherDisplay:10.36,2013-01-14 04:48:00,
2013-01-13 22:53:00,17.2,4.6,30.29,NE,56,0.0,0.0,57,0.00,,,0.00,WeatherDisplay:10.36,2013-01-14 04:53:00,
2013-01-13 22:58:00,17.2,4.6,30.29,NE,56,0.0,0.0,57,0.00,,,0.00,WeatherDisplay:10.36,2013-01-14 04:58:00,
2013-01-13 23:01:00,17.2,4.6,30.29,NE,56,0.0,0.0,57,0.00,,,0.00,WeatherDisplay:10.36,2013-01-14 05:01:00,
2013-01-13 23:02:00,17.2,4.6,30.29,NE,55,0.0,0.0,57,0.00,,,0.00,WeatherDisplay:10.36,2013-01-14 05:02:00,
2013-01-13 23:03:00,17.2,4.6,30.29,NE,55,0.0,0.0,57,0.00,,,0.00,WeatherDisplay:10.36,2013-01-14 05:03:00,
2013-01-13 23:09:00,17.1,4.4,30.29,NE,54,0.0,0.0,57,0.00,,,0.00,WeatherDisplay:10.36,2013-01-14 05:09:00,
2013-01-13 23:12:00,16.9,4.3,30.29,NE,54,0.0,0.0,57,0.00,,,0.00,WeatherDisplay:10.36,2013-01-14 05:12:00,
2013-01-13 23:17:00,16.9,4.3,30.32,NE,53,0.0,0.0,57,0.00,,,0.00,WeatherDisplay:10.36,2013-01-14 05:17:00,
2013-01-13 23:22:00,16.7,4.1,30.32,NE,53,0.0,0.0,57,0.00,,,0.00,WeatherDisplay:10.36,2013-01-14 05:22:00,
2013-01-13 23:27:00,16.5,3.9,30.32,NE,53,0.0,0.0,57,0.00,,,0.00,WeatherDisplay:10.36,2013-01-14 05:27:00,
2013-01-13 23:32:00,16.5,3.9,30.32,NE,53,0.0,0.0,57,0.00,,,0.00,WeatherDisplay:10.36,2013-01-14 05:32:00,
2013-01-13 23:37:00,16.3,4.1,30.32,NE,54,0.0,0.0,58,0.00,,,0.00,WeatherDisplay:10.36,2013-01-14 05:37:00,
2013-01-13 23:42:00,16.3,3.7,30.32,NE,55,0.0,0.0,57,0.00,,,0.00,WeatherDisplay:10.36,2013-01-14 05:42:00,
2013-01-13 23:47:00,16.0,3.4,30.32,NE,55,0.0,0.0,57,0.00,,,0.00,WeatherDisplay:10.36,2013-01-14 05:47:00,
2013-01-13 23:52:00,16.0,3.8,30.32,NE,53,0.0,0.0,58,0.00,,,0.00,WeatherDisplay:10.36,2013-01-14 05:52:00,
2013-01-13 23:57:00,15.8,3.6,30.32,NE,55,0.0,0.0,58,0.00,,,0.00,WeatherDisplay:10.36,2013-01-14 05:57:00,